User: anonymous   Login
Location: Unspecified
(0.0000°N, 0.0000°E)
Time: 19:37:12
(UTC+00:00)
Language:

OAO 1 - Orbit

View from above orbital plane
View from above orbital plane
View from above satellite
View from above satellite

Ground track
Ground track

The orbit data is extracted from the following two-line orbital elements,

1 02142U 66031A   18016.86248524 -.00000014  00000-0  18921-5 0  9992
2 02142  35.0442 194.7516 0007457 329.0351  30.9896 14.33876136710092
Epoch (UTC): 16 January 2018 20:41:58
Eccentricity: 0.0007457
inclination: 35.0442°
perigee height: 773 km
apogee height: 784 km
right ascension of ascending node: 194.7516°
argument of perigee: 329.0351°
revolutions per day: 14.33876136
mean anomaly at epoch: 30.9896°
orbit number at epoch: 71009

The dashed part of the orbit path shows where the satellite is in the earth's shadow,  

DLR